sat.trackr.live / text

‹ back to catalog

STARLINK-34437

NORAD 64346 · 2025-126C

PAYLOAD ACTIVE UNKNOWN

§ Identity

Operator
Country
US
Launch date
2025-06-13
Launch site
AFWTR
Launch vehicle
Mass (kg)
RCS (m²)

Purposes: comms

External: N2YO · Heavens-Above · Gunter

§ Orbital elements

Epoch: 2026-05-25T03:43:36.945408Z

Period
96.11 min
Inclination
70.0005°
Eccentricity
0.0003775
Mean motion
14.98334449 rev/d
Perigee alt
569.4 km
Apogee alt
574.7 km
Semi-major
6,950.2 km
B*
2.5516e-4
RAAN
201.7416°
Arg perigee
267.8864°
Mean anomaly
92.1863°
Rev number
5,213

§ Raw data

STARLINK-344371 64346U 25126C   26145.15528872  .00002953  00000+0  25516-3 0  99952 64346  70.0005 201.7416 0003775 267.8864  92.1863 14.98334449 52130

JSON: /api/v1/satellites/64346 · /tle

For live sub-satellite position, see the globe view (requires WebGL).

§ Visibility from observer

Set your observer location to see the next 7 days of passes ≥ 10°. The values pass through the URL so the page stays shareable.

No JS? Fill the form by hand. The geolocation button needs JavaScript.